• In Uzbekistan
  • List of Countries
  • For 7 days
  • Water Temperature
  • Satellite Maps
  • Weather Map
  • Weather Widgets
  • user-avatar
    Login

    Hourly Weather Rozdollya

    Today, 23 February, Friday

    Time Temperature Precipitation Wind Pressure Humidity
    00:00 -5°C° 0 mm 4 mps 758 mmHg 74%
    01:00 -5°C° 0 mm 4 mps 758 mmHg 74%
    02:00 -5°C° 0 mm 4 mps 758 mmHg 75%
    03:00 -5°C° 0 mm 4 mps 758 mmHg 74%
    04:00 -5°C° 0 mm 4 mps 758 mmHg 74%
    05:00 -5°C° 0 mm 4 mps 758 mmHg 73%
    06:00 -5°C° 0 mm 4 mps 758 mmHg 72%
    07:00 -5°C° 0 mm 4 mps 758 mmHg 70%
    08:00 -5°C° 0 mm 4 mps 758 mmHg 69%
    09:00 -5°C° 0 mm 4 mps 758 mmHg 65%
    10:00 -4°C° 0 mm 4 mps 758 mmHg 61%
    11:00 -3°C° 0 mm 4 mps 758 mmHg 57%
    12:00 -2°C° 0 mm 4 mps 758 mmHg 55%
    13:00 -2°C° 0 mm 4 mps 757 mmHg 53%
    14:00 -1°C° 0 mm 4 mps 757 mmHg 51%
    15:00 -2°C° 0 mm 4 mps 757 mmHg 53%
    16:00 -1°C° 0 mm 3 mps 757 mmHg 55%
    17:00 -2°C° 0 mm 3 mps 757 mmHg 57%
    18:00 -2°C° 0 mm 3 mps 757 mmHg 57%
    19:00 -4°C° 0 mm 4 mps 757 mmHg 58%
    20:00 -4°C° 0 mm 4 mps 757 mmHg 59%
    21:00 -5°C° 0 mm 4 mps 757 mmHg 60%
    22:00 -5°C° 0 mm 4 mps 756 mmHg 62%
    23:00 -5°C° 0 mm 4 mps 756 mmHg 63%

    Tomorrow, 24 February, Saturday

    Time Temperature Precipitation Wind Pressure Humidity
    00:00 -5°C° 0.2 mm 4 mps 756 mmHg 69%
    01:00 -7°C° 0.2 mm 4 mps 756 mmHg 74%
    02:00 -6°C° 0.2 mm 3 mps 756 mmHg 79%
    03:00 -6°C° 0.4 mm 3 mps 755 mmHg 82%
    04:00 -6°C° 0.4 mm 3 mps 755 mmHg 85%
    05:00 -7°C° 0.4 mm 3 mps 754 mmHg 88%
    06:00 -7°C° 0.4 mm 4 mps 754 mmHg 88%
    07:00 -7°C° 0.4 mm 4 mps 754 mmHg 89%
    08:00 -7°C° 0.4 mm 4 mps 754 mmHg 89%
    09:00 -7°C° 0.2 mm 4 mps 754 mmHg 87%
    10:00 -5°C° 0.2 mm 4 mps 754 mmHg 85%
    11:00 -5°C° 0.2 mm 4 mps 753 mmHg 83%
    12:00 -4°C° 0.1 mm 3 mps 753 mmHg 82%
    13:00 -4°C° 0.1 mm 3 mps 753 mmHg 80%
    14:00 -2°C° 0.1 mm 3 mps 752 mmHg 79%
    15:00 -4°C° 0.1 mm 3 mps 752 mmHg 81%
    16:00 -4°C° 0.1 mm 3 mps 752 mmHg 82%
    17:00 -4°C° 0.1 mm 4 mps 752 mmHg 84%
    18:00 -4°C° 0.2 mm 4 mps 752 mmHg 85%
    19:00 -5°C° 0.2 mm 4 mps 753 mmHg 87%
    20:00 -6°C° 0.2 mm 5 mps 753 mmHg 89%
    21:00 -7°C° 0.4 mm 5 mps 753 mmHg 89%
    22:00 -7°C° 0.4 mm 5 mps 753 mmHg 90%
    23:00 -7°C° 0.4 mm 5 mps 753 mmHg 90%

    Day after tomorrow, 25 February, Sunday

    Time Temperature Precipitation Wind Pressure Humidity
    00:00 -8°C° 0.4 mm 5 mps 753 mmHg 90%
    01:00 -8°C° 0.4 mm 5 mps 753 mmHg 90%
    02:00 -8°C° 0.4 mm 5 mps 753 mmHg 90%
    03:00 -10°C° 0.3 mm 5 mps 753 mmHg 90%
    04:00 -10°C° 0.3 mm 5 mps 753 mmHg 89%
    05:00 -11°C° 0.3 mm 6 mps 754 mmHg 89%
    06:00 -11°C° 0.1 mm 5 mps 754 mmHg 88%
    07:00 -11°C° 0.1 mm 5 mps 754 mmHg 87%
    08:00 -12°C° 0.1 mm 5 mps 755 mmHg 87%
    09:00 -11°C° 0 mm 5 mps 755 mmHg 85%
    10:00 -11°C° 0 mm 5 mps 755 mmHg 83%
    11:00 -11°C° 0 mm 5 mps 756 mmHg 81%
    12:00 -11°C° 0 mm 5 mps 756 mmHg 80%
    13:00 -10°C° 0 mm 5 mps 756 mmHg 79%
    14:00 -10°C° 0 mm 5 mps 756 mmHg 78%
    15:00 -11°C° 0 mm 5 mps 756 mmHg 78%
    16:00 -11°C° 0 mm 5 mps 756 mmHg 79%
    17:00 -12°C° 0 mm 6 mps 757 mmHg 80%
    18:00 -12°C° 0 mm 5 mps 757 mmHg 81%
    19:00 -13°C° 0 mm 5 mps 757 mmHg 82%
    20:00 -14°C° 0 mm 5 mps 758 mmHg 84%
    21:00 -14°C° 0 mm 5 mps 758 mmHg 84%
    22:00 -15°C° 0 mm 5 mps 758 mmHg 85%
    23:00 -15°C° 0 mm 5 mps 758 mmHg 86%

    26 February, Monday

    Time Temperature Precipitation Wind Pressure Humidity
    00:00 -17°C° 0 mm 5 mps 758 mmHg 86%
    01:00 -17°C° 0 mm 5 mps 758 mmHg 87%
    02:00 -17°C° 0 mm 5 mps 759 mmHg 87%
    03:00 -17°C° 0 mm 4 mps 759 mmHg 87%
    04:00 -17°C° 0 mm 4 mps 759 mmHg 88%
    05:00 -17°C° 0 mm 4 mps 759 mmHg 88%
    06:00 -17°C° 0 mm 4 mps 759 mmHg 87%
    07:00 -17°C° 0 mm 4 mps 760 mmHg 87%
    08:00 -17°C° 0 mm 4 mps 760 mmHg 86%
    09:00 -16°C° 0 mm 4 mps 760 mmHg 84%
    10:00 -15°C° 0 mm 4 mps 760 mmHg 82%
    11:00 -14°C° 0 mm 4 mps 760 mmHg 80%
    12:00 -12°C° 0 mm 4 mps 760 mmHg 78%
    13:00 -12°C° 0 mm 4 mps 759 mmHg 77%
    14:00 -12°C° 0 mm 5 mps 759 mmHg 76%
    15:00 -12°C° 0 mm 5 mps 759 mmHg 77%
    16:00 -13°C° 0 mm 5 mps 759 mmHg 78%
    17:00 -13°C° 0 mm 5 mps 759 mmHg 79%
    18:00 -14°C° 0 mm 5 mps 759 mmHg 81%
    19:00 -14°C° 0 mm 5 mps 759 mmHg 83%
    20:00 -15°C° 0 mm 4 mps 759 mmHg 84%
    21:00 -15°C° 0 mm 5 mps 759 mmHg 85%
    22:00 -15°C° 0 mm 5 mps 759 mmHg 85%
    23:00 -15°C° 0 mm 5 mps 759 mmHg 85%

    27 February, Tuesday

    Time Temperature Precipitation Wind Pressure Humidity
    00:00 -15°C° 0 mm 5 mps 759 mmHg 85%
    01:00 -15°C° 0 mm 5 mps 758 mmHg 86%
    02:00 -17°C° 0 mm 6 mps 758 mmHg 86%
    03:00 -16°C° 0 mm 6 mps 757 mmHg 85%
    04:00 -16°C° 0 mm 6 mps 757 mmHg 84%
    05:00 -17°C° 0 mm 7 mps 757 mmHg 84%
    06:00 -17°C° 0 mm 7 mps 756 mmHg 82%
    07:00 -17°C° 0 mm 8 mps 756 mmHg 79%
    08:00 -17°C° 0 mm 8 mps 755 mmHg 77%
    09:00 -16°C° 0 mm 8 mps 755 mmHg 75%
    10:00 -15°C° 0 mm 8 mps 755 mmHg 72%
    11:00 -13°C° 0 mm 8 mps 755 mmHg 70%
    12:00 -13°C° 0.1 mm 8 mps 754 mmHg 70%
    13:00 -12°C° 0.1 mm 8 mps 753 mmHg 71%
    14:00 -12°C° 0.1 mm 8 mps 753 mmHg 71%
    15:00 -12°C° 0.8 mm 9 mps 752 mmHg 78%
    16:00 -12°C° 0.8 mm 9 mps 752 mmHg 85%
    17:00 -14°C° 0.8 mm 10 mps 751 mmHg 92%
    18:00 -14°C° 0.9 mm 10 mps 750 mmHg 92%
    19:00 -14°C° 0.9 mm 9 mps 750 mmHg 92%
    20:00 -14°C° 0.9 mm 9 mps 749 mmHg 92%
    21:00 -12°C° 0.7 mm 9 mps 748 mmHg 92%
    22:00 -12°C° 0.7 mm 8 mps 748 mmHg 92%
    23:00 -12°C° 0.7 mm 8 mps 747 mmHg 93%

    28 February, Wednesday

    Time Temperature Precipitation Wind Pressure Humidity
    00:00 -12°C° 0.8 mm 7 mps 747 mmHg 93%
    01:00 -11°C° 0.8 mm 6 mps 747 mmHg 93%
    02:00 -11°C° 0.8 mm 6 mps 747 mmHg 94%
    03:00 -12°C° 0.2 mm 5 mps 748 mmHg 94%
    04:00 -12°C° 0.2 mm 5 mps 748 mmHg 94%
    05:00 -11°C° 0.2 mm 4 mps 749 mmHg 94%
    06:00 -12°C° 0 mm 4 mps 750 mmHg 94%
    07:00 -14°C° 0 mm 4 mps 750 mmHg 94%
    08:00 -13°C° 0 mm 3 mps 751 mmHg 95%
    09:00 -12°C° 0 mm 3 mps 752 mmHg 93%
    10:00 -12°C° 0 mm 3 mps 753 mmHg 91%
    11:00 -10°C° 0 mm 3 mps 754 mmHg 90%
    12:00 -9°C° 0 mm 3 mps 754 mmHg 88%
    13:00 -9°C° 0 mm 3 mps 754 mmHg 86%
    14:00 -7°C° 0 mm 2 mps 754 mmHg 84%
    15:00 -7°C° 0 mm 2 mps 754 mmHg 87%
    16:00 -7°C° 0 mm 1 mps 755 mmHg 89%
    17:00 -7°C° 0 mm 1 mps 755 mmHg 91%
    18:00 -7°C° 0.1 mm 1 mps 755 mmHg 92%
    19:00 -7°C° 0.1 mm 1 mps 755 mmHg 92%
    20:00 -9°C° 0.1 mm 2 mps 755 mmHg 93%
    21:00 -9°C° 0.1 mm 2 mps 755 mmHg 93%
    22:00 -9°C° 0.1 mm 2 mps 755 mmHg 93%
    23:00 -10°C° 0.1 mm 3 mps 755 mmHg 93%
    Show more